Tracking 31027 objects as of 19-Jul-2025
HD Live streaming from Space Station
objects crossing your sky now

RADUGA 25

Track RADUGA 25 now!
RADUGA 25 is classified as:


NORAD ID: 20499
Int'l Code: 1990-016A
Perigee: 35,767.0 km
Apogee: 35,813.8 km
Inclination: 12.7 °
Period: 1,435.9 minutes
Semi major axis: 42161 km
RCS: 7.9432 m2 (large)
Launch date: February 15, 1990
Source: Commonwealth of Independent States (former USSR) (CIS)
Launch site: TYURATAM MISSILE AND SPACE COMPLEX (TTMTR)
Your satellite tracking list
FENGYUN 1C DEB
Track 1 satellite(s)




NASA's NSSDC Master Catalog

Two Line Element Set (TLE):
1 20499U 90016A   25199.42764718 -.00000240  00000-0  00000-0 0  9992
2 20499  12.6708 336.9996 0005559 195.5800 246.3158  1.00283743129567
Source of the keplerian elements: AFSPC